Change the Weather History Date:

Tuesday, May 29, 2012

  Actual Average Record
Temperature  
Mean Temperature 51 °F 61 °F  
Max Temperature 58 °F 73 °F 100 °F (1934)
Min Temperature 43 °F 50 °F 32 °F (1947)
Degree Days  
Heating Degree Days 14 5  
Month to date heating degree days 153 252  
Since 1 July heating degree days 6592 8211  
Cooling Degree Days 0 1  
Month to date cooling degree days 51 20  
Year to date cooling degree days 58 21  
Growing Degree Days 2 (Base 50)    
Moisture  
Dew Point 41 °F    
Average Humidity 70    
Maximum Humidity 89    
Minimum Humidity 50    
Precipitation  
Precipitation 0.00 in 0.08 in 1.29 in (2013)
Month to date precipitation 1.47 2.52  
Year to date precipitation 8.28 6.78  
Sea Level Pressure  
Sea Level Pressure 29.87 in    
Wind  
Wind Speed 16 mph (NW)    
Max Wind Speed 28 mph    
Max Gust Speed 35 mph    
T = Trace of Precipitation, MM = Missing Value Source: NWS Daily Summary

Daily Weather History Graph

Daily Weather History Graph

Search for Another Location

Airport or City:

Trip Planner

Search our weather history database for the weather conditions in past years. The results will help you decide how hot, cold, wet, or windy it might be!

Date:

Astronomy

May. 29, 2012 Rise Set
Actual Time 5:43 AM CDT 9:07 PM CDT
Civil Twilight 5:06 AM CDT 9:44 PM CDT
Nautical Twilight 4:18 AM CDT 10:33 PM CDT
Astronomical Twilight 3:17 AM CDT 11:35 PM CDT
Moon 2:22 PM CDT (5/29) 1:57 AM CDT (5/29)
Length of Visible Light 16h 37m
Length of Day
15h 24m
First Quarter, 59% of the Moon is Illuminated
May 29
First Quarter
Jun 4
Full
Jun 11
Last Quarter
Jun 19
New
Jun 26
First Quarter

Hourly Weather History & Observations

Time (CDT) Temp. Windchill Dew Point Humidity Pressure Visibility Wind Dir Wind Speed Gust Speed Precip Events Conditions
12:56 AM 54.0 °F - 39.0 °F 57% 29.71 in - WNW 12.7 mph 21.9 mph N/A   Unknown
1:56 AM 53.1 °F - 39.9 °F 61% 29.71 in - WNW 20.7 mph 29.9 mph N/A   Unknown
2:56 AM 52.0 °F - 41.0 °F 66% 29.71 in - WNW 17.3 mph - N/A   Unknown
3:56 AM 52.0 °F - 42.1 °F 69% 29.72 in - WNW 18.4 mph 26.5 mph N/A   Unknown
4:56 AM 51.1 °F - 43.0 °F 74% 29.74 in - NW 17.3 mph - N/A   Unknown
5:56 AM 53.1 °F - 44.1 °F 71% 29.76 in - NW 18.4 mph 32.2 mph N/A   Unknown
6:56 AM 53.1 °F - 44.1 °F 71% 29.78 in - NW 19.6 mph 29.9 mph N/A   Unknown
7:56 AM 53.1 °F - 44.1 °F 71% 29.81 in - NW 19.6 mph 24.2 mph N/A   Unknown
8:56 AM 54.0 °F - 44.1 °F 69% 29.83 in - NW 19.6 mph 28.8 mph N/A   Unknown
9:56 AM 55.9 °F - 44.1 °F 64% 29.85 in - NNW 17.3 mph - N/A   Unknown
10:56 AM 52.0 °F - 48.0 °F 86% 29.86 in - NNW 13.8 mph - N/A   Unknown
11:56 AM 54.0 °F - 46.0 °F 75% 29.88 in - NNW 18.4 mph - N/A   Unknown
12:56 PM 57.0 °F - 39.9 °F 53% 29.90 in - NNW 21.9 mph 34.5 mph N/A   Unknown
1:56 PM 54.0 °F - 39.0 °F 57% 29.92 in - North 16.1 mph 26.5 mph N/A   Unknown
2:56 PM 55.0 °F - 39.9 °F 57% 29.93 in - North 19.6 mph 25.3 mph N/A   Unknown
3:56 PM 54.0 °F - 39.0 °F 57% 29.95 in - North 21.9 mph 28.8 mph N/A   Unknown
4:56 PM 54.0 °F - 37.0 °F 53% 29.95 in - NNW 18.4 mph 26.5 mph N/A   Unknown
5:56 PM 52.0 °F - 36.0 °F 54% 29.96 in - NW 16.1 mph - N/A   Unknown
6:56 PM 54.0 °F - 36.0 °F 51% 29.95 in - NNW 19.6 mph 25.3 mph N/A   Unknown
7:56 PM 52.0 °F - 37.0 °F 57% 29.97 in - NNW 13.8 mph - N/A   Unknown
8:56 PM 51.1 °F - 39.0 °F 63% 29.98 in - North 11.5 mph - N/A   Unknown
9:56 PM 48.9 °F - 39.0 °F 69% 30.01 in - NNW 11.5 mph - N/A   Unknown
10:56 PM 46.9 °F - 39.9 °F 77% 30.03 in - North 9.2 mph - N/A   Unknown
11:56 PM 45.0 °F 41.2 °F 39.9 °F 82% 30.04 in - NNW 6.9 mph - N/A   Unknown